Location: Killam
(52.7910°N, 111.8608°W)
Time: 17:28:08
(UTC+00:00)

Injun/Solrad 3 - Pass Details

Date: 20 February 2026
Orbit: 872 x 984 km, 66.8° (Epoch: 8 March)

Event Time Altitude Azimuth Distance (km) Brightness Sun altitude
Rises 03:04:06 0° 319° (NW) 3,566 11.8 -21.2°
Reaches altitude 10° 03:06:38 10° 315° (NW) 2,637 11.0 -21.6°
Maximum altitude 03:12:36 56° 239° (WSW) 1,116 8.5 -22.4°
Enters shadow 03:17:24 17° 167° (SSE) 2,227 9.6 -23.2°
